Regional Weather Roundup
Issued by NWS Northern Indiana

Home | Current Version | Previous Version | Graphics & Text | Print | Product List | Glossary On
Versions: 1 2 3 4 5 6 7 8 9 10 11 12 13 14 15 16 17 18 19 20 21 22 23 24 25 26 27 28 29 30 31 32 33 34 35 36 37 38 39 40 41 42 43 44 45 46 47 48 49 50
000
ASUS43 KIWX 311110
RWRIWX

KIWX WEATHER ROUNDUP
NATIONAL WEATHER SERVICE NORTHERN INDIANA
700 AM EDT TUE MAY 31 2016

NOTE: "FAIR" INDICATES FEW OR NO CLOUDS BELOW 12,000 FEET WITH NO
SIGNIFICANT WEATHER AND/OR OBSTRUCTIONS TO VISIBILITY.

* THESE STATIONS ARE NOT UNDER NWS QUALITY CONTROL. THEY ALSO MAY NOT
  REPORT WEATHER SUCH AS PRECIPITATION OR FOG.

INZ001>027-311200-
NORTHERN INDIANA

CITY           SKY/WX    TMP DP  RH WIND       PRES   REMARKS
GARY*          MOCLDY    66  64  94 E5        30.00R
VALPARAISO     CLOUDY    63  58  83 NE5       30.01R
MICHIGAN CITY* CLOUDY    61  61 100 CALM      30.01S
LAPORTE*       MOCLDY    66  60  81 E3        30.02R
KNOX*          PTCLDY    59  52  77 CALM      30.00S
SOUTH BEND     PTCLDY    62  56  80 CALM      30.03R
ELKHART*       CLEAR     59  57  94 CALM      30.02
GOSHEN         PTCLDY    60  55  83 CALM      30.02R
MONTICELLO*    PTCLDY    65  52  62 E3        29.99R
LOGANSPORT*    PTCLDY    63  55  77 CALM      30.01R
ROCHESTER*     CLOUDY    63  59  88 CALM      30.02R
WARSAW*        CLOUDY    59  55  88 E3        30.02R
ANGOLA*          N/A     63  52  67 CALM      30.02S
FORT WAYNE     CLOUDY    63  54  72 N5        30.02R
HUNTINGTON*    PTCLDY   N/A N/A N/A CALM      30.01R
PERU/GRISSOM   MOCLDY    63  56  78 CALM      29.99R
MARION*        PTCLDY    63  54  72 CALM      30.01R HAZE

$$
INZ028>050-311200-
CENTRAL INDIANA

CITY           SKY/WX    TMP DP  RH WIND       PRES   REMARKS
LAFAYETTE      PTCLDY    61  58  90 CALM      29.98R
KOKOMO*        PTCLDY    63  52  67 E5        30.00R
MUNCIE*        CLOUDY    65  56  72 CALM      30.01R
INDIANAPOLIS   CLOUDY    66  59  78 CALM      29.98R

$$
MIZ043>046-050>051-056>058-064>065-071>073-077>080-311200-
SOUTHWEST LOWER MICHIGAN

CITY           SKY/WX    TMP DP  RH WIND       PRES   REMARKS
BATTLE CREEK   CLOUDY    56  53  90 CALM      30.04R
BENTON HARBOR  PTCLDY    58  54  86 E3        30.01R
COLDWATER*     CLEAR     56  55  95 CALM      30.03R
HILLSDALE*     CLEAR     56  51  83 CALM      30.04R
HOLLAND        CLEAR     56  54  93 CALM      30.03R FOG
GRAND RAPIDS   PTCLDY    57  53  86 SE3       30.03R
KALAMAZOO      CLOUDY    58  54  86 CALM      30.04R
STURGIS*       PTCLDY    61  53  73 E5        30.02R
THREE RIVERS*  FAIR      58  56  92 CALM      30.03R

$$
OHZ001>008-015>018-024>025-311200-
NORTHWEST OHIO

CITY           SKY/WX    TMP DP  RH WIND       PRES   REMARKS
WAUSEON*         N/A     63  63 100 NE6       30.01S
DEFIANCE       CLOUDY    62  53  72 NE6       30.01R
FINDLAY        CLOUDY    67  51  56 N3        29.99S
TOLEDO EXPRESS CLOUDY    62  52  69 CALM      30.01R
TOLEDO METCALF CLEAR     65  52  62 N3        30.01R
LIMA           CLOUDY    65  53  65 NE5       30.01R

$$
AND FOR LAKE MICHIGAN COASTAL AND OPEN LAKE BUOY OBSERVATIONS

STATION/POSITION TEMP    WIND        PRES    VSBY  WAVE
                 AIR SEA DIR/SP/G                  HT/PER
                 (F)     (DEG/KT/KT) (MB)    (MI)  (FT/S)
CALUMET HARBOR    63      40/  3/  4 1015.0R
MICHIGAN CITY     66      70/  4/  4   N/A
BURNS HARBOR      64      70/  6/  9 1015.9R
SAINT JOSEPH      64      CALM  /  2 1016.9S
SOUTH LAKE BUOY   59 55  110/  4/  4 1015.9R         0
4 MI NW BRIDGMAN  66 65  100/  8/ 10   N/A           1
MICHIGAN CITY     63 61   80/  4/  6   N/A           0

$$
&&




USA.gov is the U.S. government's official web portal to all federal, state and local government web resources and services.